Time,TemperatureF,DewpointF,PressureIn,WindDirection,WindDirectionDegrees,WindSpeedMPH,WindSpeedGustMPH,Humidity,HourlyPrecipIn,Conditions,Clouds,dailyrainin,SoftwareType,DateUTC
2013-10-15 00:01:00,51.6,51.6,0.00,WNW,302,0.0,0.0,100,0.00,,---,0.00,VWS V13.01,2013-10-15 04:01:00,
2013-10-15 00:06:00,51.6,51.6,0.00,WNW,302,0.0,0.0,100,0.00,,---,0.00,VWS V13.01,2013-10-15 04:06:00,
2013-10-15 00:11:00,51.8,51.8,0.00,WNW,302,0.0,0.0,100,0.00,,---,0.00,VWS V13.01,2013-10-15 04:11:00,
2013-10-15 00:16:00,52.0,52.0,0.00,WNW,302,0.0,0.0,100,0.00,,---,0.00,VWS V13.01,2013-10-15 04:16:00,
2013-10-15 00:21:00,52.0,52.0,0.00,WNW,302,0.0,0.0,100,0.00,,---,0.00,VWS V13.01,2013-10-15 04:21:00,
2013-10-15 00:26:00,51.8,51.8,0.00,WNW,302,0.0,0.0,100,0.00,,---,0.00,VWS V13.01,2013-10-15 04:26:00,
2013-10-15 00:31:00,51.6,51.6,0.00,WNW,302,0.0,0.0,100,0.00,,---,0.00,VWS V13.01,2013-10-15 04:31:00,
2013-10-15 00:36:00,51.4,51.4,0.00,WNW,302,0.0,0.0,100,0.00,,---,0.00,VWS V13.01,2013-10-15 04:36:00,
2013-10-15 00:41:00,51.4,51.4,0.00,WNW,302,0.0,0.0,100,0.00,,---,0.00,VWS V13.01,2013-10-15 04:41:00,
2013-10-15 00:46:00,51.4,51.4,0.00,WNW,302,0.0,0.0,100,0.00,,---,0.00,VWS V13.01,2013-10-15 04:46:00,
2013-10-15 00:51:00,51.4,51.4,0.00,WNW,302,0.0,0.0,100,0.00,,---,0.00,VWS V13.01,2013-10-15 04:51:00,
2013-10-15 00:56:00,51.4,51.4,0.00,WNW,302,0.0,0.0,100,0.00,,---,0.00,VWS V13.01,2013-10-15 04:56:00,
2013-10-15 01:01:00,51.4,51.4,0.00,WNW,302,0.0,0.0,100,0.00,,---,0.00,VWS V13.01,2013-10-15 05:01:00,
2013-10-15 01:06:00,51.4,51.4,0.00,WNW,302,0.0,0.0,100,0.00,,---,0.00,VWS V13.01,2013-10-15 05:06:00,
2013-10-15 01:11:00,51.4,51.4,0.00,WNW,302,0.0,0.0,100,0.00,,---,0.00,VWS V13.01,2013-10-15 05:11:00,
2013-10-15 01:16:00,51.4,51.4,0.00,WNW,302,0.0,0.0,100,0.00,,---,0.00,VWS V13.01,2013-10-15 05:16:00,
2013-10-15 01:21:00,51.4,51.4,0.00,WNW,302,0.0,0.0,100,0.00,,---,0.00,VWS V13.01,2013-10-15 05:21:00,
2013-10-15 01:26:00,51.4,51.4,0.00,WNW,302,0.0,0.0,100,0.00,,---,0.00,VWS V13.01,2013-10-15 05:26:00,
2013-10-15 01:31:00,51.1,51.1,0.00,WNW,302,0.0,0.0,100,0.00,,---,0.00,VWS V13.01,2013-10-15 05:31:00,
2013-10-15 01:36:00,51.1,51.1,0.00,WNW,302,0.0,0.0,100,0.00,,---,0.00,VWS V13.01,2013-10-15 05:36:00,
2013-10-15 01:41:00,50.9,50.9,0.00,WNW,302,0.0,0.0,100,0.00,,---,0.00,VWS V13.01,2013-10-15 05:41:00,
2013-10-15 01:46:00,50.7,50.7,0.00,WNW,302,0.0,0.0,100,0.00,,---,0.00,VWS V13.01,2013-10-15 05:46:00,
2013-10-15 01:51:00,50.5,50.5,0.00,WNW,302,0.0,0.0,100,0.00,,---,0.00,VWS V13.01,2013-10-15 05:51:00,
2013-10-15 01:56:00,50.7,50.7,0.00,WNW,302,0.0,0.0,100,0.00,,---,0.00,VWS V13.01,2013-10-15 05:56:00,
2013-10-15 02:01:00,50.7,50.7,0.00,WNW,302,0.0,0.0,100,0.00,,---,0.00,VWS V13.01,2013-10-15 06:01:00,
2013-10-15 02:06:00,50.5,50.5,0.00,WNW,302,0.0,0.0,100,0.00,,---,0.00,VWS V13.01,2013-10-15 06:06:00,
2013-10-15 02:10:00,50.4,50.4,0.00,WNW,302,0.0,0.0,100,0.00,,---,0.00,VWS V13.01,2013-10-15 06:10:00,
2013-10-15 02:15:00,50.2,50.2,0.00,WNW,302,0.0,0.0,100,0.00,,---,0.00,VWS V13.01,2013-10-15 06:15:00,
2013-10-15 02:20:00,50.4,50.4,0.00,WNW,302,0.0,0.0,100,0.00,,---,0.00,VWS V13.01,2013-10-15 06:20:00,
2013-10-15 02:25:00,50.4,50.4,0.00,WNW,302,0.0,0.0,100,0.00,,---,0.00,VWS V13.01,2013-10-15 06:25:00,
2013-10-15 02:31:00,50.4,50.4,0.00,WNW,302,0.0,0.0,100,0.00,,---,0.00,VWS V13.01,2013-10-15 06:31:00,
2013-10-15 02:36:00,50.4,50.4,0.00,WNW,302,0.0,0.0,100,0.00,,---,0.00,VWS V13.01,2013-10-15 06:36:00,
2013-10-15 02:41:00,50.2,50.2,0.00,WNW,302,0.0,0.0,100,0.00,,---,0.00,VWS V13.01,2013-10-15 06:41:00,
2013-10-15 02:45:00,50.4,50.4,0.00,WNW,302,0.0,0.0,100,0.00,,---,0.00,VWS V13.01,2013-10-15 06:45:00,
2013-10-15 02:50:00,50.4,50.4,0.00,WNW,302,0.0,0.0,100,0.00,,---,0.00,VWS V13.01,2013-10-15 06:50:00,
2013-10-15 02:55:00,50.4,50.4,0.00,WNW,302,0.0,0.0,100,0.00,,---,0.00,VWS V13.01,2013-10-15 06:55:00,
2013-10-15 03:00:00,50.4,50.4,0.00,WNW,302,0.0,0.0,100,0.00,,---,0.00,VWS V13.01,2013-10-15 07:00:00,
2013-10-15 03:05:00,50.4,50.4,0.00,WNW,302,0.0,0.0,100,0.00,,---,0.00,VWS V13.01,2013-10-15 07:05:00,
2013-10-15 03:10:00,50.5,50.5,0.00,WNW,302,0.0,0.0,100,0.00,,---,0.00,VWS V13.01,2013-10-15 07:10:00,
2013-10-15 03:15:00,50.5,50.5,0.00,WNW,302,0.0,0.0,100,0.00,,---,0.00,VWS V13.01,2013-10-15 07:15:00,
2013-10-15 03:20:00,50.7,50.7,0.00,WNW,302,0.0,0.0,100,0.00,,---,0.00,VWS V13.01,2013-10-15 07:20:00,
2013-10-15 03:25:00,50.7,50.7,0.00,WNW,302,0.0,0.0,100,0.00,,---,0.00,VWS V13.01,2013-10-15 07:25:00,
2013-10-15 03:30:00,50.7,50.7,0.00,WNW,302,0.0,0.0,100,0.00,,---,0.00,VWS V13.01,2013-10-15 07:30:00,
2013-10-15 03:35:00,50.7,50.7,0.00,WNW,302,0.0,0.0,100,0.00,,---,0.00,VWS V13.01,2013-10-15 07:35:00,
2013-10-15 03:40:00,50.9,50.9,0.00,WNW,302,0.0,0.0,100,0.00,,---,0.00,VWS V13.01,2013-10-15 07:40:00,
2013-10-15 03:45:00,50.9,50.9,0.00,WNW,302,0.0,0.0,100,0.00,,---,0.00,VWS V13.01,2013-10-15 07:45:00,
2013-10-15 03:50:00,50.9,50.9,0.00,WNW,302,0.0,0.0,100,0.00,,---,0.00,VWS V13.01,2013-10-15 07:50:00,
2013-10-15 03:55:00,50.9,50.9,0.00,WNW,302,0.0,0.0,100,0.00,,---,0.00,VWS V13.01,2013-10-15 07:55:00,
2013-10-15 04:00:00,51.1,51.1,0.00,WNW,302,0.0,0.0,100,0.00,,---,0.00,VWS V13.01,2013-10-15 08:00:00,
2013-10-15 04:05:00,51.1,51.1,0.00,WNW,302,0.0,0.0,100,0.00,,---,0.00,VWS V13.01,2013-10-15 08:05:00,
2013-10-15 04:10:00,51.1,51.1,0.00,WNW,302,0.0,0.0,100,0.00,,---,0.00,VWS V13.01,2013-10-15 08:10:00,
2013-10-15 04:16:00,51.1,51.1,0.00,WNW,302,0.0,0.0,100,0.00,,---,0.00,VWS V13.01,2013-10-15 08:16:00,
2013-10-15 04:21:00,51.1,51.1,0.00,WNW,302,0.0,0.0,100,0.00,,---,0.00,VWS V13.01,2013-10-15 08:21:00,
2013-10-15 04:26:00,50.9,50.9,0.00,WNW,302,0.0,0.0,100,0.00,,---,0.00,VWS V13.01,2013-10-15 08:26:00,
2013-10-15 04:31:00,50.9,50.9,0.00,WNW,302,0.0,0.0,100,0.00,,---,0.00,VWS V13.01,2013-10-15 08:31:00,
2013-10-15 04:36:00,50.7,50.7,0.00,WNW,302,0.0,0.0,100,0.00,,---,0.00,VWS V13.01,2013-10-15 08:36:00,
2013-10-15 04:41:00,50.9,50.9,0.00,WNW,302,0.0,0.0,100,0.00,,---,0.00,VWS V13.01,2013-10-15 08:41:00,
2013-10-15 04:46:00,50.9,50.9,0.00,WNW,302,0.0,0.0,100,0.00,,---,0.00,VWS V13.01,2013-10-15 08:46:00,
2013-10-15 04:50:00,50.7,50.7,0.00,WNW,302,0.0,0.0,100,0.00,,---,0.00,VWS V13.01,2013-10-15 08:50:00,
2013-10-15 04:55:00,50.9,50.9,0.00,WNW,302,0.0,0.0,100,0.00,,---,0.00,VWS V13.01,2013-10-15 08:55:00,
2013-10-15 05:00:00,50.7,50.7,0.00,WNW,302,0.0,0.0,100,0.00,,---,0.00,VWS V13.01,2013-10-15 09:00:00,
2013-10-15 05:05:00,50.9,50.9,0.00,WNW,302,0.0,0.0,100,0.00,,---,0.00,VWS V13.01,2013-10-15 09:05:00,
2013-10-15 05:10:00,50.7,50.7,0.00,WNW,302,0.0,0.0,100,0.00,,---,0.00,VWS V13.01,2013-10-15 09:10:00,
2013-10-15 05:15:00,50.7,50.7,0.00,WNW,302,0.0,0.0,100,0.00,,---,0.00,VWS V13.01,2013-10-15 09:15:00,
2013-10-15 05:20:00,50.7,50.7,0.00,WNW,301,0.0,0.0,100,0.00,,---,0.00,VWS V13.01,2013-10-15 09:20:00,
2013-10-15 05:25:00,50.7,50.7,0.00,WNW,302,0.0,0.0,100,0.00,,---,0.00,VWS V13.01,2013-10-15 09:25:00,
2013-10-15 05:30:00,50.7,50.7,0.00,WNW,302,0.0,0.0,100,0.00,,---,0.00,VWS V13.01,2013-10-15 09:30:00,
2013-10-15 05:35:00,50.9,50.9,0.00,WNW,301,0.0,0.0,100,0.00,,---,0.00,VWS V13.01,2013-10-15 09:35:00,
2013-10-15 05:40:00,50.9,50.9,0.00,WNW,302,0.0,0.0,100,0.00,,---,0.00,VWS V13.01,2013-10-15 09:40:00,
2013-10-15 05:45:00,50.9,50.9,0.00,WNW,302,0.0,0.0,100,0.00,,---,0.00,VWS V13.01,2013-10-15 09:45:00,
2013-10-15 05:50:00,50.9,50.9,0.00,WNW,302,0.0,0.0,100,0.00,,---,0.00,VWS V13.01,2013-10-15 09:50:00,
2013-10-15 05:55:00,50.9,50.9,0.00,WNW,302,0.0,0.0,100,0.00,,---,0.00,VWS V13.01,2013-10-15 09:55:00,
2013-10-15 06:00:00,50.9,50.9,0.00,WNW,302,0.0,0.0,100,0.00,,---,0.00,VWS V13.01,2013-10-15 10:00:00,
2013-10-15 06:05:00,50.9,50.9,0.00,WNW,302,0.0,0.0,100,0.00,,---,0.00,VWS V13.01,2013-10-15 10:05:00,
2013-10-15 06:10:00,50.7,50.7,0.00,WNW,302,0.0,0.0,100,0.00,,---,0.00,VWS V13.01,2013-10-15 10:10:00,
2013-10-15 06:15:00,50.7,50.7,0.00,WNW,302,0.0,0.0,100,0.00,,---,0.00,VWS V13.01,2013-10-15 10:15:00,
2013-10-15 06:20:00,50.5,50.5,0.00,WNW,302,0.0,0.0,100,0.00,,---,0.00,VWS V13.01,2013-10-15 10:20:00,
2013-10-15 06:25:00,50.7,50.7,0.00,WNW,302,0.0,0.0,100,0.00,,---,0.00,VWS V13.01,2013-10-15 10:25:00,
2013-10-15 06:30:00,50.7,50.7,0.00,WNW,302,0.0,0.0,100,0.00,,---,0.00,VWS V13.01,2013-10-15 10:30:00,
2013-10-15 06:35:00,50.7,50.7,0.00,WNW,302,0.0,0.0,100,0.00,,---,0.00,VWS V13.01,2013-10-15 10:35:00,
2013-10-15 06:40:00,50.7,50.7,0.00,WNW,302,0.0,0.0,100,0.00,,---,0.00,VWS V13.01,2013-10-15 10:40:00,
2013-10-15 06:45:00,50.7,50.7,0.00,WNW,302,0.0,0.0,100,0.00,,---,0.00,VWS V13.01,2013-10-15 10:45:00,
2013-10-15 06:50:00,50.7,50.7,0.00,WNW,302,0.0,0.0,100,0.00,,---,0.00,VWS V13.01,2013-10-15 10:50:00,
2013-10-15 06:55:00,50.9,50.9,0.00,WNW,302,0.0,0.0,100,0.00,,---,0.00,VWS V13.01,2013-10-15 10:55:00,
2013-10-15 07:00:00,51.1,51.1,0.00,WNW,302,0.0,0.0,100,0.00,,---,0.00,VWS V13.01,2013-10-15 11:00:00,
2013-10-15 07:05:00,51.1,51.1,0.00,WNW,302,0.0,0.0,100,0.00,,---,0.00,VWS V13.01,2013-10-15 11:05:00,
2013-10-15 07:10:00,51.1,51.1,0.00,WNW,302,0.0,0.0,100,0.00,,---,0.00,VWS V13.01,2013-10-15 11:10:00,
2013-10-15 07:15:00,51.1,51.1,0.00,WNW,302,0.0,0.0,100,0.00,,---,0.00,VWS V13.01,2013-10-15 11:15:00,
2013-10-15 07:20:00,51.3,51.3,0.00,WNW,302,0.0,0.0,100,0.00,,---,0.00,VWS V13.01,2013-10-15 11:20:00,
2013-10-15 07:25:00,51.4,51.4,0.00,WNW,302,0.0,0.0,100,0.00,,---,0.00,VWS V13.01,2013-10-15 11:25:00,
2013-10-15 07:30:00,51.4,51.4,0.00,WNW,302,0.0,0.0,100,0.00,,---,0.00,VWS V13.01,2013-10-15 11:30:00,
2013-10-15 07:35:00,51.6,51.6,0.00,WNW,302,0.0,0.0,100,0.00,,---,0.00,VWS V13.01,2013-10-15 11:35:00,
2013-10-15 07:40:00,51.6,51.6,0.00,WNW,302,0.0,0.0,100,0.00,,---,0.00,VWS V13.01,2013-10-15 11:40:00,
2013-10-15 07:45:00,51.8,51.8,0.00,WNW,302,0.0,0.0,100,0.00,,---,0.00,VWS V13.01,2013-10-15 11:45:00,
2013-10-15 07:50:00,51.8,51.8,0.00,WNW,302,0.0,0.0,100,0.00,,---,0.00,VWS V13.01,2013-10-15 11:50:00,
2013-10-15 07:55:00,52.0,52.0,0.00,WNW,302,0.0,0.0,100,0.00,,---,0.00,VWS V13.01,2013-10-15 11:55:00,
2013-10-15 07:59:00,52.2,52.2,0.00,West,276,0.0,0.0,100,0.00,,---,0.00,VWS V13.01,2013-10-15 11:59:00,
2013-10-15 08:04:00,52.2,52.2,0.00,West,276,0.0,0.0,100,0.00,,---,0.00,VWS V13.01,2013-10-15 12:04:00,
2013-10-15 08:09:00,52.3,52.3,0.00,West,275,0.0,0.0,100,0.00,,---,0.00,VWS V13.01,2013-10-15 12:09:00,
2013-10-15 08:14:00,52.5,52.5,0.00,WSW,252,0.0,0.0,100,0.00,,---,0.00,VWS V13.01,2013-10-15 12:14:00,
2013-10-15 08:19:00,52.5,52.5,0.00,South,169,0.0,0.0,100,0.00,,---,0.00,VWS V13.01,2013-10-15 12:19:00,
2013-10-15 08:24:00,52.9,52.9,0.00,South,169,0.0,0.0,100,0.00,,---,0.00,VWS V13.01,2013-10-15 12:24:00,
2013-10-15 08:29:00,53.2,53.2,0.00,SSE,150,0.0,0.0,100,0.00,,---,0.00,VWS V13.01,2013-10-15 12:29:00,
2013-10-15 08:34:00,53.8,53.8,0.00,SE,145,0.0,0.0,100,0.00,,---,0.00,VWS V13.01,2013-10-15 12:34:00,
2013-10-15 08:39:00,54.3,54.3,0.00,SE,145,0.0,0.0,100,0.00,,---,0.00,VWS V13.01,2013-10-15 12:39:00,
2013-10-15 08:44:00,54.5,54.5,0.00,SE,144,0.0,0.0,100,0.00,,---,0.00,VWS V13.01,2013-10-15 12:44:00,
2013-10-15 08:49:00,54.9,54.9,0.00,SE,145,0.0,0.0,100,0.00,,---,0.00,VWS V13.01,2013-10-15 12:49:00,
2013-10-15 08:54:00,55.0,55.0,0.00,SE,146,0.0,0.0,100,0.00,,---,0.00,VWS V13.01,2013-10-15 12:54:00,
2013-10-15 08:59:00,55.2,55.2,0.00,SE,133,0.0,0.0,100,0.00,,---,0.00,VWS V13.01,2013-10-15 12:59:00,
2013-10-15 09:04:00,55.4,55.4,0.00,ESE,115,0.0,0.0,100,0.00,,---,0.00,VWS V13.01,2013-10-15 13:04:00,
2013-10-15 09:09:00,55.9,55.9,0.00,ESE,119,0.0,0.0,100,0.00,,---,0.00,VWS V13.01,2013-10-15 13:09:00,
2013-10-15 09:14:00,56.3,56.3,0.00,ESE,106,0.0,0.0,100,0.00,,---,0.00,VWS V13.01,2013-10-15 13:14:00,
2013-10-15 09:19:00,56.3,56.3,0.00,ESE,102,0.0,0.0,100,0.00,,---,0.00,VWS V13.01,2013-10-15 13:19:00,
2013-10-15 09:24:00,56.8,56.8,0.00,SSE,151,3.4,7.2,100,0.00,,---,0.00,VWS V13.01,2013-10-15 13:24:00,
2013-10-15 09:29:00,57.2,57.2,0.00,SE,142,0.0,0.0,100,0.00,,---,0.00,VWS V13.01,2013-10-15 13:29:00,
2013-10-15 09:34:00,57.4,57.4,0.00,SE,140,0.0,0.0,100,0.00,,---,0.00,VWS V13.01,2013-10-15 13:34:00,
2013-10-15 09:39:00,57.7,57.7,0.00,South,169,0.0,0.0,100,0.00,,---,0.00,VWS V13.01,2013-10-15 13:39:00,
2013-10-15 09:44:00,57.6,57.6,0.00,ESE,116,0.0,0.0,100,0.00,,---,0.00,VWS V13.01,2013-10-15 13:44:00,
2013-10-15 09:49:00,57.7,57.7,0.00,ESE,120,0.0,0.0,100,0.00,,---,0.00,VWS V13.01,2013-10-15 13:49:00,
2013-10-15 09:54:00,57.9,57.9,0.00,ESE,104,0.0,0.0,100,0.00,,---,0.00,VWS V13.01,2013-10-15 13:54:00,
2013-10-15 09:59:00,58.3,58.3,0.00,ESE,118,0.0,0.0,100,0.00,,---,0.00,VWS V13.01,2013-10-15 13:59:00,
2013-10-15 10:04:00,58.8,58.8,0.00,ESE,116,0.0,4.8,100,0.00,,---,0.00,VWS V13.01,2013-10-15 14:04:00,
2013-10-15 10:09:00,59.4,59.4,0.00,SSE,168,0.0,0.0,100,0.00,,---,0.00,VWS V13.01,2013-10-15 14:09:00,
2013-10-15 10:14:00,59.7,59.7,0.00,SE,133,3.4,7.2,100,0.00,,---,0.00,VWS V13.01,2013-10-15 14:14:00,
2013-10-15 10:19:00,60.1,60.1,0.00,ESE,115,3.4,5.6,100,0.00,,---,0.00,VWS V13.01,2013-10-15 14:19:00,
2013-10-15 10:24:00,60.1,59.2,0.00,SSE,147,0.0,0.0,97,0.00,,---,0.00,VWS V13.01,2013-10-15 14:24:00,
2013-10-15 10:29:00,60.6,59.5,0.00,SE,132,0.0,0.0,96,0.00,,---,0.00,VWS V13.01,2013-10-15 14:29:00,
2013-10-15 10:34:00,60.4,58.1,0.00,ENE,57,0.0,0.0,92,0.00,,---,0.00,VWS V13.01,2013-10-15 14:34:00,
2013-10-15 10:39:00,60.4,57.8,0.00,SE,130,0.0,0.0,91,0.00,,---,0.00,VWS V13.01,2013-10-15 14:39:00,
2013-10-15 10:44:00,61.3,58.4,0.00,SE,146,5.4,6.4,90,0.00,,---,0.00,VWS V13.01,2013-10-15 14:44:00,
2013-10-15 10:49:00,61.9,57.7,0.00,SSE,152,0.0,0.0,86,0.00,,---,0.00,VWS V13.01,2013-10-15 14:49:00,
2013-10-15 10:54:00,61.5,56.3,0.00,SE,126,0.0,0.0,83,0.00,,---,0.00,VWS V13.01,2013-10-15 14:54:00,
2013-10-15 10:59:00,61.5,55.3,0.00,SSE,156,0.0,0.0,80,0.00,,---,0.00,VWS V13.01,2013-10-15 14:59:00,
2013-10-15 11:04:00,61.7,54.4,0.00,SSE,155,0.0,0.0,77,0.00,,---,0.00,VWS V13.01,2013-10-15 15:04:00,
2013-10-15 11:09:00,61.7,53.7,0.00,East,96,0.0,0.0,75,0.00,,---,0.00,VWS V13.01,2013-10-15 15:09:00,
2013-10-15 11:14:00,62.2,53.5,0.00,East,95,0.0,0.0,73,0.00,,---,0.00,VWS V13.01,2013-10-15 15:14:00,
2013-10-15 11:19:00,62.2,52.7,0.00,SE,138,5.4,6.4,71,0.00,,---,0.00,VWS V13.01,2013-10-15 15:19:00,
2013-10-15 11:24:00,62.6,51.9,0.00,East,101,0.0,0.0,68,0.00,,---,0.00,VWS V13.01,2013-10-15 15:24:00,
2013-10-15 11:29:00,63.3,52.2,0.00,SE,144,3.4,6.4,67,0.00,,---,0.00,VWS V13.01,2013-10-15 15:29:00,
2013-10-15 11:34:00,63.5,51.1,0.00,SSE,157,4.7,5.6,64,0.00,,---,0.00,VWS V13.01,2013-10-15 15:34:00,
2013-10-15 11:39:00,64.2,51.4,0.00,SSE,159,5.4,8.9,63,0.00,,---,0.00,VWS V13.01,2013-10-15 15:39:00,
2013-10-15 11:44:00,64.2,50.5,0.00,NNE,26,0.0,4.8,61,0.00,,---,0.00,VWS V13.01,2013-10-15 15:44:00,
2013-10-15 11:49:00,64.2,50.1,0.00,SE,133,5.4,8.1,60,0.00,,---,0.00,VWS V13.01,2013-10-15 15:49:00,
2013-10-15 11:54:00,65.5,51.2,0.00,SSE,148,0.0,7.2,60,0.00,,---,0.00,VWS V13.01,2013-10-15 15:54:00,
2013-10-15 11:59:00,66.9,52.1,0.00,SSE,167,4.7,6.4,59,0.00,,---,0.00,VWS V13.01,2013-10-15 15:59:00,
2013-10-15 12:04:00,66.7,51.0,0.00,ESE,112,0.0,6.4,57,0.00,,---,0.00,VWS V13.01,2013-10-15 16:04:00,
2013-10-15 12:09:00,68.0,52.2,0.00,SSE,151,0.0,7.2,57,0.00,,---,0.00,VWS V13.01,2013-10-15 16:09:00,
2013-10-15 12:14:00,67.6,50.9,0.00,SE,146,5.4,6.4,55,0.00,,---,0.00,VWS V13.01,2013-10-15 16:14:00,
2013-10-15 12:19:00,67.6,50.9,0.00,ESE,113,3.4,8.9,55,0.00,,---,0.00,VWS V13.01,2013-10-15 16:19:00,
2013-10-15 12:24:00,69.1,52.7,0.00,South,179,5.4,9.7,56,0.00,,---,0.00,VWS V13.01,2013-10-15 16:24:00,
2013-10-15 12:29:00,69.8,52.4,0.00,SSE,155,3.4,8.9,54,0.00,,---,0.00,VWS V13.01,2013-10-15 16:29:00,
2013-10-15 12:34:00,67.5,50.2,0.00,East,91,8.1,13.7,54,0.00,,---,0.00,VWS V13.01,2013-10-15 16:34:00,
2013-10-15 12:39:00,67.3,49.6,0.00,ENE,75,0.0,7.2,53,0.00,,---,0.00,VWS V13.01,2013-10-15 16:39:00,
2013-10-15 12:44:00,67.5,50.2,0.00,SSE,151,4.0,9.7,54,0.00,,---,0.00,VWS V13.01,2013-10-15 16:44:00,
2013-10-15 12:49:00,67.8,50.1,0.00,SE,141,8.1,9.7,53,0.00,,---,0.00,VWS V13.01,2013-10-15 16:49:00,
2013-10-15 12:54:00,69.8,51.9,0.00,ESE,107,0.0,7.2,53,0.00,,---,0.00,VWS V13.01,2013-10-15 16:54:00,
2013-10-15 12:59:00,68.9,51.1,0.00,NNW,328,4.0,8.1,53,0.00,,---,0.00,VWS V13.01,2013-10-15 16:59:00,
2013-10-15 13:04:00,69.8,51.9,0.00,SE,144,6.0,8.1,53,0.00,,---,0.00,VWS V13.01,2013-10-15 17:04:00,
2013-10-15 13:09:00,70.7,51.7,0.00,SE,142,5.4,8.9,51,0.00,,---,0.00,VWS V13.01,2013-10-15 17:09:00,
2013-10-15 13:14:00,71.1,52.0,0.00,SSW,202,5.4,9.7,51,0.00,,---,0.00,VWS V13.01,2013-10-15 17:14:00,
2013-10-15 13:19:00,70.3,50.8,0.00,East,89,0.0,4.0,50,0.00,,---,0.00,VWS V13.01,2013-10-15 17:19:00,
2013-10-15 13:24:00,70.0,50.5,0.00,ESE,105,4.0,4.8,50,0.00,,---,0.00,VWS V13.01,2013-10-15 17:24:00,
2013-10-15 13:29:00,70.0,51.0,0.00,SE,124,0.0,0.0,51,0.00,,---,0.00,VWS V13.01,2013-10-15 17:29:00,
2013-10-15 13:34:00,70.7,51.2,0.00,SE,137,4.7,5.6,50,0.00,,---,0.00,VWS V13.01,2013-10-15 17:34:00,
2013-10-15 13:39:00,69.8,50.9,0.00,East,98,0.0,0.0,51,0.00,,---,0.00,VWS V13.01,2013-10-15 17:39:00,
2013-10-15 13:44:00,70.3,50.8,0.00,East,98,4.7,5.6,50,0.00,,---,0.00,VWS V13.01,2013-10-15 17:44:00,
2013-10-15 13:49:00,70.0,50.5,0.00,SW,220,6.0,7.2,50,0.00,,---,0.00,VWS V13.01,2013-10-15 17:49:00,
2013-10-15 13:54:00,69.4,50.5,0.00,ESE,122,0.0,0.0,51,0.00,,---,0.00,VWS V13.01,2013-10-15 17:54:00,
2013-10-15 13:59:00,68.9,50.0,0.00,WNW,286,0.0,0.0,51,0.00,,---,0.00,VWS V13.01,2013-10-15 17:59:00,
2013-10-15 14:04:00,69.6,51.2,0.00,SSE,149,0.0,0.0,52,0.00,,---,0.00,VWS V13.01,2013-10-15 18:04:00,
2013-10-15 14:09:00,70.3,51.4,0.00,SW,234,0.0,0.0,51,0.00,,---,0.00,VWS V13.01,2013-10-15 18:09:00,
2013-10-15 14:14:00,70.2,51.2,0.00,WSW,250,0.0,0.0,51,0.00,,---,0.00,VWS V13.01,2013-10-15 18:14:00,
2013-10-15 14:19:00,69.8,50.9,0.00,SE,139,3.4,4.8,51,0.00,,---,0.00,VWS V13.01,2013-10-15 18:19:00,
2013-10-15 14:24:00,69.6,50.7,0.00,SSE,152,0.0,0.0,51,0.00,,---,0.00,VWS V13.01,2013-10-15 18:24:00,
2013-10-15 14:29:00,69.8,50.9,0.00,South,169,7.4,10.5,51,0.00,,---,0.00,VWS V13.01,2013-10-15 18:29:00,
2013-10-15 14:34:00,69.3,50.4,0.00,SSE,165,5.4,6.4,51,0.00,,---,0.00,VWS V13.01,2013-10-15 18:34:00,
2013-10-15 14:39:00,68.4,50.1,0.00,SE,141,0.0,4.8,52,0.00,,---,0.00,VWS V13.01,2013-10-15 18:39:00,
2013-10-15 14:44:00,68.2,49.9,0.00,NE,55,0.0,0.0,52,0.00,,---,0.00,VWS V13.01,2013-10-15 18:44:00,
2013-10-15 14:49:00,70.0,51.6,0.00,SE,145,0.0,0.0,52,0.00,,---,0.00,VWS V13.01,2013-10-15 18:49:00,
2013-10-15 14:54:00,69.6,50.7,0.00,East,97,4.0,7.2,51,0.00,,---,0.00,VWS V13.01,2013-10-15 18:54:00,
2013-10-15 14:59:00,68.9,50.6,0.00,East,84,0.0,0.0,52,0.00,,---,0.00,VWS V13.01,2013-10-15 18:59:00,
2013-10-15 15:04:00,67.6,49.9,0.00,East,98,0.0,4.8,53,0.00,,---,0.00,VWS V13.01,2013-10-15 19:04:00,
2013-10-15 15:09:00,67.8,50.6,0.00,ENE,76,0.0,0.0,54,0.00,,---,0.00,VWS V13.01,2013-10-15 19:09:00,
2013-10-15 15:14:00,68.2,50.4,0.00,ENE,77,0.0,0.0,53,0.00,,---,0.00,VWS V13.01,2013-10-15 19:14:00,
2013-10-15 15:19:00,68.4,51.1,0.00,SE,142,6.0,7.2,54,0.00,,---,0.00,VWS V13.01,2013-10-15 19:19:00,
2013-10-15 15:24:00,67.6,50.4,0.00,SE,130,0.0,4.8,54,0.00,,---,0.00,VWS V13.01,2013-10-15 19:24:00,
2013-10-15 15:29:00,67.8,51.1,0.00,SSE,156,0.0,5.6,55,0.00,,---,0.00,VWS V13.01,2013-10-15 19:29:00,
2013-10-15 15:34:00,67.3,50.1,0.00,ESE,109,4.7,5.6,54,0.00,,---,0.00,VWS V13.01,2013-10-15 19:34:00,
2013-10-15 15:39:00,67.3,50.6,0.00,South,169,0.0,0.0,55,0.00,,---,0.00,VWS V13.01,2013-10-15 19:39:00,
2013-10-15 15:44:00,67.3,50.6,0.00,ESE,113,7.4,8.9,55,0.00,,---,0.00,VWS V13.01,2013-10-15 19:44:00,
2013-10-15 15:49:00,67.3,51.1,0.00,SE,138,0.0,0.0,56,0.00,,---,0.00,VWS V13.01,2013-10-15 19:49:00,
2013-10-15 15:54:00,67.3,51.1,0.00,SW,235,0.0,0.0,56,0.00,,---,0.00,VWS V13.01,2013-10-15 19:54:00,
2013-10-15 15:59:00,67.1,50.9,0.00,NE,54,0.0,0.0,56,0.00,,---,0.00,VWS V13.01,2013-10-15 19:59:00,
2013-10-15 16:04:00,66.9,50.7,0.00,ESE,111,0.0,0.0,56,0.00,,---,0.00,VWS V13.01,2013-10-15 20:04:00,
2013-10-15 16:09:00,66.9,50.7,0.00,SE,124,0.0,0.0,56,0.00,,---,0.00,VWS V13.01,2013-10-15 20:09:00,
2013-10-15 16:14:00,66.7,50.6,0.00,SSE,158,0.0,0.0,56,0.00,,---,0.00,VWS V13.01,2013-10-15 20:14:00,
2013-10-15 16:19:00,66.6,50.4,0.00,SE,130,0.0,0.0,56,0.00,,---,0.00,VWS V13.01,2013-10-15 20:19:00,
2013-10-15 16:23:00,66.4,50.7,0.00,SE,146,0.0,0.0,57,0.00,,---,0.00,VWS V13.01,2013-10-15 20:23:00,
2013-10-15 16:28:00,66.0,50.4,0.00,SE,143,4.0,4.8,57,0.00,,---,0.00,VWS V13.01,2013-10-15 20:28:00,
2013-10-15 16:33:00,66.0,50.8,0.00,ESE,112,0.0,0.0,58,0.00,,---,0.00,VWS V13.01,2013-10-15 20:33:00,
2013-10-15 16:38:00,65.7,50.5,0.00,SSE,157,0.0,0.0,58,0.00,,---,0.00,VWS V13.01,2013-10-15 20:38:00,
2013-10-15 16:43:00,65.1,50.0,0.00,ESE,119,4.0,4.8,58,0.00,,---,0.00,VWS V13.01,2013-10-15 20:43:00,
2013-10-15 16:48:00,64.9,49.8,0.00,SSE,151,0.0,0.0,58,0.00,,---,0.00,VWS V13.01,2013-10-15 20:48:00,
2013-10-15 16:53:00,64.6,49.5,0.00,East,94,4.0,4.8,58,0.00,,---,0.00,VWS V13.01,2013-10-15 20:53:00,
2013-10-15 16:58:00,64.2,49.6,0.00,East,101,0.0,0.0,59,0.00,,---,0.00,VWS V13.01,2013-10-15 20:58:00,
2013-10-15 17:04:00,64.0,49.4,0.00,SE,141,0.0,6.4,59,0.00,,---,0.00,VWS V13.01,2013-10-15 21:04:00,
2013-10-15 17:09:00,63.9,49.3,0.00,ESE,119,0.0,0.0,59,0.00,,---,0.00,VWS V13.01,2013-10-15 21:09:00,
2013-10-15 17:14:00,63.5,48.9,0.00,SE,146,0.0,0.0,59,0.00,,---,0.00,VWS V13.01,2013-10-15 21:14:00,
2013-10-15 17:19:00,63.3,49.2,0.00,SE,131,3.4,4.0,60,0.00,,---,0.00,VWS V13.01,2013-10-15 21:19:00,
2013-10-15 17:24:00,63.0,48.9,0.00,SE,124,0.0,0.0,60,0.00,,---,0.00,VWS V13.01,2013-10-15 21:24:00,
2013-10-15 17:29:00,62.8,49.2,0.00,ENE,67,0.0,0.0,61,0.00,,---,0.00,VWS V13.01,2013-10-15 21:29:00,
2013-10-15 17:34:00,62.6,49.0,0.00,ESE,104,0.0,0.0,61,0.00,,---,0.00,VWS V13.01,2013-10-15 21:34:00,
2013-10-15 17:38:00,62.4,49.2,0.00,ESE,102,0.0,0.0,62,0.00,,---,0.00,VWS V13.01,2013-10-15 21:38:00,
2013-10-15 17:43:00,62.1,49.3,0.00,ESE,114,0.0,0.0,63,0.00,,---,0.00,VWS V13.01,2013-10-15 21:43:00,
2013-10-15 17:48:00,61.7,49.4,0.00,ESE,114,0.0,0.0,64,0.00,,---,0.00,VWS V13.01,2013-10-15 21:48:00,
2013-10-15 17:53:00,61.5,49.7,0.00,ESE,114,0.0,0.0,65,0.00,,---,0.00,VWS V13.01,2013-10-15 21:53:00,
2013-10-15 17:58:00,61.2,49.3,0.00,ESE,114,0.0,0.0,65,0.00,,---,0.00,VWS V13.01,2013-10-15 21:58:00,
2013-10-15 18:03:00,60.8,49.4,0.00,ESE,114,0.0,0.0,66,0.00,,---,0.00,VWS V13.01,2013-10-15 22:03:00,
2013-10-15 18:08:00,60.3,49.7,0.00,ESE,114,0.0,0.0,68,0.00,,---,0.00,VWS V13.01,2013-10-15 22:08:00,
2013-10-15 18:13:00,59.9,49.3,0.00,ESE,114,0.0,0.0,68,0.00,,---,0.00,VWS V13.01,2013-10-15 22:13:00,
2013-10-15 18:18:00,59.4,49.2,0.00,ESE,114,0.0,0.0,69,0.00,,---,0.00,VWS V13.01,2013-10-15 22:18:00,
2013-10-15 18:23:00,59.0,49.2,0.00,ESE,114,0.0,0.0,70,0.00,,---,0.00,VWS V13.01,2013-10-15 22:23:00,
2013-10-15 18:28:00,58.6,49.3,0.00,ESE,114,0.0,0.0,71,0.00,,---,0.00,VWS V13.01,2013-10-15 22:28:00,
2013-10-15 18:33:00,58.3,49.3,0.00,ESE,114,0.0,0.0,72,0.00,,---,0.00,VWS V13.01,2013-10-15 22:33:00,
2013-10-15 18:38:00,58.1,49.5,0.00,ESE,114,0.0,0.0,73,0.00,,---,0.00,VWS V13.01,2013-10-15 22:38:00,
2013-10-15 18:43:00,57.9,49.7,0.00,ESE,114,0.0,0.0,74,0.00,,---,0.00,VWS V13.01,2013-10-15 22:43:00,
2013-10-15 18:48:00,57.7,49.9,0.00,ESE,114,0.0,0.0,75,0.00,,---,0.00,VWS V13.01,2013-10-15 22:48:00,
2013-10-15 18:53:00,57.6,50.1,0.00,ESE,114,0.0,0.0,76,0.00,,---,0.00,VWS V13.01,2013-10-15 22:53:00,
2013-10-15 18:58:00,57.4,50.2,0.00,ESE,114,0.0,0.0,77,0.00,,---,0.00,VWS V13.01,2013-10-15 22:58:00,
2013-10-15 19:03:00,57.0,50.2,0.00,ESE,114,0.0,0.0,78,0.00,,---,0.00,VWS V13.01,2013-10-15 23:03:00,
2013-10-15 19:08:00,56.8,50.1,0.00,ESE,114,0.0,0.0,78,0.00,,---,0.00,VWS V13.01,2013-10-15 23:08:00,
2013-10-15 19:13:00,56.5,50.1,0.00,ESE,114,0.0,0.0,79,0.00,,---,0.00,VWS V13.01,2013-10-15 23:13:00,
2013-10-15 19:18:00,56.5,50.4,0.00,ESE,114,0.0,0.0,80,0.00,,---,0.00,VWS V13.01,2013-10-15 23:18:00,
2013-10-15 19:23:00,56.3,50.5,0.00,ESE,114,0.0,0.0,81,0.00,,---,0.00,VWS V13.01,2013-10-15 23:23:00,
2013-10-15 19:28:00,56.1,50.7,0.00,ESE,114,0.0,0.0,82,0.00,,---,0.00,VWS V13.01,2013-10-15 23:28:00,
2013-10-15 19:33:00,55.9,50.5,0.00,ESE,114,0.0,0.0,82,0.00,,---,0.00,VWS V13.01,2013-10-15 23:33:00,
2013-10-15 19:38:00,55.8,50.4,0.00,ESE,114,0.0,0.0,82,0.00,,---,0.00,VWS V13.01,2013-10-15 23:38:00,
2013-10-15 19:43:00,55.4,50.3,0.00,ESE,114,0.0,0.0,83,0.00,,---,0.00,VWS V13.01,2013-10-15 23:43:00,
2013-10-15 19:48:00,55.2,50.5,0.00,ESE,114,0.0,0.0,84,0.00,,---,0.00,VWS V13.01,2013-10-15 23:48:00,
2013-10-15 19:53:00,55.2,50.5,0.00,ESE,114,0.0,0.0,84,0.00,,---,0.00,VWS V13.01,2013-10-15 23:53:00,
2013-10-15 19:58:00,55.0,50.6,0.00,ESE,114,0.0,0.0,85,0.00,,---,0.00,VWS V13.01,2013-10-15 23:58:00,
2013-10-15 20:03:00,54.9,50.4,0.00,ESE,114,0.0,0.0,85,0.00,,---,0.00,VWS V13.01,2013-10-16 00:03:00,
2013-10-15 20:08:00,54.9,50.8,0.00,ESE,114,0.0,0.0,86,0.00,,---,0.00,VWS V13.01,2013-10-16 00:08:00,
2013-10-15 20:13:00,55.0,51.2,0.00,ESE,114,0.0,0.0,87,0.00,,---,0.00,VWS V13.01,2013-10-16 00:13:00,
2013-10-15 20:18:00,55.0,51.2,0.00,ESE,114,0.0,0.0,87,0.00,,---,0.00,VWS V13.01,2013-10-16 00:18:00,
2013-10-15 20:23:00,54.9,51.4,0.00,ESE,114,0.0,0.0,88,0.00,,---,0.00,VWS V13.01,2013-10-16 00:23:00,
2013-10-15 20:28:00,54.7,51.2,0.00,ESE,114,0.0,0.0,88,0.00,,---,0.00,VWS V13.01,2013-10-16 00:28:00,
2013-10-15 20:33:00,54.7,51.5,0.00,ESE,114,0.0,0.0,89,0.00,,---,0.00,VWS V13.01,2013-10-16 00:33:00,
2013-10-15 20:38:00,54.7,51.8,0.00,ESE,114,0.0,0.0,90,0.00,,---,0.00,VWS V13.01,2013-10-16 00:38:00,
2013-10-15 20:43:00,54.7,51.8,0.00,ESE,114,0.0,0.0,90,0.00,,---,0.00,VWS V13.01,2013-10-16 00:43:00,
2013-10-15 20:48:00,54.5,51.6,0.00,ESE,114,0.0,0.0,90,0.00,,---,0.00,VWS V13.01,2013-10-16 00:48:00,
2013-10-15 20:53:00,54.5,51.9,0.00,ESE,114,0.0,0.0,91,0.00,,---,0.00,VWS V13.01,2013-10-16 00:53:00,
2013-10-15 20:58:00,54.5,51.9,0.00,ESE,116,0.0,0.0,91,0.00,,---,0.00,VWS V13.01,2013-10-16 00:58:00,
2013-10-15 21:03:00,54.5,52.2,0.00,ESE,119,0.0,0.0,92,0.00,,---,0.00,VWS V13.01,2013-10-16 01:03:00,
2013-10-15 21:08:00,54.5,52.5,0.00,ESE,119,0.0,0.0,93,0.00,,---,0.00,VWS V13.01,2013-10-16 01:08:00,
2013-10-15 21:13:00,54.5,52.5,0.00,ESE,119,0.0,0.0,93,0.00,,---,0.00,VWS V13.01,2013-10-16 01:13:00,
2013-10-15 21:18:00,54.7,52.7,0.00,ESE,119,0.0,0.0,93,0.00,,---,0.00,VWS V13.01,2013-10-16 01:18:00,
2013-10-15 21:23:00,54.5,52.5,0.00,ESE,119,0.0,0.0,93,0.00,,---,0.00,VWS V13.01,2013-10-16 01:23:00,
2013-10-15 21:28:00,54.5,52.8,0.00,ESE,119,0.0,0.0,94,0.00,,---,0.00,VWS V13.01,2013-10-16 01:28:00,
2013-10-15 21:33:00,54.7,53.0,0.00,SSE,157,0.0,0.0,94,0.00,,---,0.00,VWS V13.01,2013-10-16 01:33:00,
2013-10-15 21:38:00,55.0,53.6,0.00,SE,130,0.0,0.0,95,0.00,,---,0.00,VWS V13.01,2013-10-16 01:38:00,
2013-10-15 21:43:00,55.4,53.7,0.00,ESE,116,0.0,0.0,94,0.00,,---,0.00,VWS V13.01,2013-10-16 01:43:00,
2013-10-15 21:48:00,55.8,54.3,0.00,SSE,149,0.0,0.0,95,0.00,,---,0.00,VWS V13.01,2013-10-16 01:48:00,
2013-10-15 21:53:00,55.9,54.2,0.00,SE,139,0.0,0.0,94,0.00,,---,0.00,VWS V13.01,2013-10-16 01:53:00,
2013-10-15 21:58:00,56.1,54.4,0.00,SE,138,0.0,0.0,94,0.00,,---,0.00,VWS V13.01,2013-10-16 01:58:00,
2013-10-15 22:03:00,55.9,54.2,0.00,SE,138,0.0,0.0,94,0.00,,---,0.00,VWS V13.01,2013-10-16 02:03:00,
2013-10-15 22:08:00,55.9,54.2,0.00,SE,138,0.0,0.0,94,0.00,,---,0.00,VWS V13.01,2013-10-16 02:08:00,
2013-10-15 22:13:00,55.9,54.5,0.00,SE,138,0.0,0.0,95,0.00,,---,0.00,VWS V13.01,2013-10-16 02:13:00,
2013-10-15 22:18:00,55.9,54.5,0.00,SE,138,0.0,0.0,95,0.00,,---,0.00,VWS V13.01,2013-10-16 02:18:00,
2013-10-15 22:23:00,55.8,54.3,0.00,SE,138,0.0,0.0,95,0.00,,---,0.00,VWS V13.01,2013-10-16 02:23:00,
2013-10-15 22:28:00,55.8,54.3,0.00,SE,138,0.0,0.0,95,0.00,,---,0.00,VWS V13.01,2013-10-16 02:28:00,
2013-10-15 22:33:00,55.4,54.0,0.00,SE,138,0.0,0.0,95,0.00,,---,0.00,VWS V13.01,2013-10-16 02:33:00,
2013-10-15 22:38:00,55.2,53.8,0.00,SE,138,0.0,0.0,95,0.00,,---,0.00,VWS V13.01,2013-10-16 02:38:00,
2013-10-15 22:43:00,55.0,53.9,0.00,SE,138,0.0,0.0,96,0.00,,---,0.00,VWS V13.01,2013-10-16 02:43:00,
2013-10-15 22:48:00,54.9,53.7,0.00,SE,138,0.0,0.0,96,0.00,,---,0.00,VWS V13.01,2013-10-16 02:48:00,
2013-10-15 22:53:00,54.9,53.7,0.00,SE,138,0.0,0.0,96,0.00,,---,0.00,VWS V13.01,2013-10-16 02:53:00,
2013-10-15 22:58:00,54.9,53.7,0.00,SE,138,0.0,0.0,96,0.00,,---,0.00,VWS V13.01,2013-10-16 02:58:00,
2013-10-15 23:03:00,54.9,54.0,0.00,SE,138,0.0,0.0,97,0.00,,---,0.00,VWS V13.01,2013-10-16 03:03:00,
2013-10-15 23:08:00,55.0,54.2,0.00,SE,138,0.0,0.0,97,0.00,,---,0.00,VWS V13.01,2013-10-16 03:08:00,
2013-10-15 23:13:00,55.2,54.4,0.00,SE,138,0.0,0.0,97,0.00,,---,0.00,VWS V13.01,2013-10-16 03:13:00,
2013-10-15 23:18:00,55.2,54.4,0.00,SE,138,0.0,0.0,97,0.00,,---,0.00,VWS V13.01,2013-10-16 03:18:00,
2013-10-15 23:23:00,55.2,54.7,0.00,SE,138,0.0,0.0,98,0.00,,---,0.00,VWS V13.01,2013-10-16 03:23:00,
2013-10-15 23:28:00,55.4,54.6,0.00,SSE,148,0.0,0.0,97,0.00,,---,0.00,VWS V13.01,2013-10-16 03:28:00,
2013-10-15 23:33:00,55.4,54.6,0.00,SSE,148,0.0,0.0,97,0.00,,---,0.00,VWS V13.01,2013-10-16 03:33:00,
2013-10-15 23:38:00,55.4,54.8,0.00,SSE,148,0.0,0.0,98,0.00,,---,0.00,VWS V13.01,2013-10-16 03:38:00,
2013-10-15 23:43:00,55.4,54.8,0.00,SSE,148,0.0,0.0,98,0.00,,---,0.00,VWS V13.01,2013-10-16 03:43:00,
2013-10-15 23:48:00,55.4,54.8,0.00,SSE,148,0.0,0.0,98,0.00,,---,0.00,VWS V13.01,2013-10-16 03:48:00,
2013-10-15 23:53:00,55.2,54.7,0.00,SSE,148,0.0,0.0,98,0.00,,---,0.00,VWS V13.01,2013-10-16 03:53:00,
2013-10-15 23:58:00,55.0,54.8,0.00,SSE,148,0.0,0.0,99,0.00,,---,0.00,VWS V13.01,2013-10-16 03:58:00,